CMP104 SKPS-MPSM

Flight info

Callsign CMP104
Flight time 1h 23m
Altitude 35000
Route MER DCT ANKAS DCT ISOPA DCT CLO/N0464F340 UW90 BUSMO UN420 IRATA
Aircraft B738/M-SDE2E3FGHIRWXY/LB1

Departure

Time 2026-04-21 06:03
Airport Antonio Nariño Airport (SKPS)

Arrival

Time 2026-04-21 07:26
Airport Scarlett Martinez International Airport (MPSM)
Time Latitude Longitude Altitude Speed Heading
2026-04-21 05:36 1.39543 -77.28995 5907 ft 0 kts 105°
2026-04-21 05:40 1.39589 -77.28983 5907 ft 0 kts 105°
2026-04-21 05:42 1.39588 -77.28983 5907 ft 4 kts 105°
2026-04-21 05:42 1.39576 -77.28979 5907 ft 0 kts 105°
2026-04-21 05:51 1.39578 -77.28987 5907 ft 4 kts 103°
2026-04-21 05:51 1.39583 -77.29012 5907 ft 3 kts 107°
2026-04-21 05:51 1.39590 -77.29023 5907 ft 2 kts 163°
2026-04-21 05:51 1.39601 -77.29024 5907 ft 2 kts 190°
2026-04-21 05:52 1.39612 -77.29022 5907 ft 2 kts 195°
2026-04-21 05:52 1.39613 -77.29022 5906 ft 0 kts 195°
2026-04-21 05:52 1.39619 -77.29020 5906 ft 3 kts 195°
2026-04-21 05:53 1.39630 -77.29017 5906 ft 0 kts 195°
2026-04-21 05:56 1.39612 -77.29022 5906 ft 8 kts 194°
2026-04-21 05:56 1.39548 -77.29037 5908 ft 10 kts 194°
2026-04-21 05:57 1.39518 -77.29058 5908 ft 0 kts 252°
2026-04-21 05:59 1.39516 -77.29068 5909 ft 4 kts 263°
2026-04-21 06:00 1.39421 -77.29159 5918 ft 19 kts 195°
2026-04-21 06:00 1.39262 -77.29202 5927 ft 28 kts 195°
2026-04-21 06:00 1.39039 -77.29259 5935 ft 37 kts 194°
2026-04-21 06:00 1.38806 -77.29321 5944 ft 31 kts 195°
2026-04-21 06:01 1.38686 -77.29341 5952 ft 4 kts 218°
2026-04-21 06:01 1.38689 -77.29356 5950 ft 2 kts 327°
2026-04-21 06:01 1.38722 -77.29346 5948 ft 9 kts 22°
2026-04-21 06:01 1.38748 -77.29338 5951 ft 0 kts 15°
2026-04-21 06:02 1.38789 -77.29326 5949 ft 31 kts 16°
2026-04-21 06:02 1.39260 -77.29200 5927 ft 109 kts 15°
2026-04-21 06:03 1.40237 -77.28941 5878 ft 175 kts 16°
2026-04-21 06:03 1.41495 -77.28605 6375 ft 194 kts 17°
2026-04-21 06:03 1.42808 -77.28193 7284 ft 198 kts 19°
2026-04-21 06:03 1.44098 -77.27707 8109 ft 199 kts 21°
2026-04-21 06:04 1.45437 -77.27183 8554 ft 219 kts 20°
2026-04-21 06:04 1.46938 -77.26616 8743 ft 242 kts 20°
2026-04-21 06:04 1.48587 -77.26005 8954 ft 262 kts 19°
2026-04-21 06:04 1.50321 -77.25369 9461 ft 268 kts 19°
2026-04-21 06:05 1.52070 -77.24733 10048 ft 275 kts 19°
2026-04-21 06:05 1.53939 -77.24057 10413 ft 294 kts 19°
2026-04-21 06:05 1.55960 -77.23330 10560 ft 320 kts 19°
2026-04-21 06:05 1.58137 -77.22547 10738 ft 343 kts 19°
2026-04-21 06:06 1.60423 -77.21726 11155 ft 354 kts 19°
2026-04-21 06:06 1.62751 -77.20891 11950 ft 352 kts 19°
2026-04-21 06:06 1.65032 -77.20072 12930 ft 346 kts 18°
2026-04-21 06:06 1.67294 -77.19261 13605 ft 350 kts 18°
2026-04-21 06:07 1.69619 -77.18428 14195 ft 355 kts 18°
2026-04-21 06:07 1.71961 -77.17589 14743 ft 360 kts 18°
2026-04-21 06:07 1.74327 -77.16741 15314 ft 364 kts 19°
2026-04-21 06:07 1.76725 -77.15881 15893 ft 368 kts 19°
2026-04-21 06:08 1.79181 -77.14986 16447 ft 372 kts 21°
2026-04-21 06:08 1.81577 -77.13968 16998 ft 377 kts 23°
2026-04-21 06:08 1.83976 -77.12862 17548 ft 381 kts 25°
2026-04-21 06:08 1.86385 -77.11723 18089 ft 385 kts 25°
2026-04-21 06:09 1.88824 -77.10569 18596 ft 389 kts 25°
2026-04-21 06:09 1.91287 -77.09410 19109 ft 391 kts 25°
2026-04-21 06:09 1.93792 -77.08240 19645 ft 393 kts 25°
2026-04-21 06:09 1.96255 -77.07095 20106 ft 396 kts 25°
2026-04-21 06:10 1.98771 -77.05930 20564 ft 400 kts 24°
2026-04-21 06:10 2.01305 -77.04758 21024 ft 403 kts 25°
2026-04-21 06:10 2.03867 -77.03575 21486 ft 406 kts 25°
2026-04-21 06:10 2.06447 -77.02383 21927 ft 409 kts 25°
2026-04-21 06:11 2.09046 -77.01183 22365 ft 412 kts 25°
2026-04-21 06:11 2.11662 -76.99975 22810 ft 415 kts 25°
2026-04-21 06:11 2.14294 -76.98759 23248 ft 418 kts 25°
2026-04-21 06:11 2.16943 -76.97535 23668 ft 421 kts 25°
2026-04-21 06:12 2.19579 -76.96318 24007 ft 423 kts 25°
2026-04-21 06:12 2.22289 -76.95066 24391 ft 425 kts 25°
2026-04-21 06:12 2.24981 -76.93822 24739 ft 427 kts 25°
2026-04-21 06:12 2.27694 -76.92568 25103 ft 429 kts 25°
2026-04-21 06:13 2.30409 -76.91314 25462 ft 431 kts 24°
2026-04-21 06:13 2.33200 -76.90025 25823 ft 433 kts 24°
2026-04-21 06:13 2.35471 -76.88975 26113 ft 435 kts 24°
2026-04-21 06:14 2.36153 -76.88659 26203 ft 436 kts 24°
2026-04-21 06:14 2.38923 -76.87379 26537 ft 438 kts 24°
2026-04-21 06:14 2.41712 -76.86090 26883 ft 440 kts 24°
2026-04-21 06:14 2.44504 -76.84800 27197 ft 443 kts 24°
2026-04-21 06:15 2.47276 -76.83520 27508 ft 445 kts 24°
2026-04-21 06:15 2.50178 -76.82182 27820 ft 448 kts 24°
2026-04-21 06:15 2.53011 -76.80876 28136 ft 450 kts 24°
2026-04-21 06:15 2.55853 -76.79565 28438 ft 452 kts 24°
2026-04-21 06:16 2.58720 -76.78242 28736 ft 454 kts 24°
2026-04-21 06:16 2.61594 -76.76916 29010 ft 456 kts 24°
2026-04-21 06:16 2.64484 -76.75582 29282 ft 458 kts 24°
2026-04-21 06:16 2.67387 -76.74242 29557 ft 461 kts 24°
2026-04-21 06:17 2.70304 -76.72895 29830 ft 463 kts 24°
2026-04-21 06:17 2.73204 -76.71556 30084 ft 464 kts 24°
2026-04-21 06:17 2.76153 -76.70194 30325 ft 466 kts 24°
2026-04-21 06:17 2.79089 -76.68839 30652 ft 464 kts 24°
2026-04-21 06:18 2.81979 -76.67504 31053 ft 461 kts 24°
2026-04-21 06:18 2.84887 -76.66160 31433 ft 459 kts 24°
2026-04-21 06:18 2.87791 -76.64819 31760 ft 459 kts 25°
2026-04-21 06:18 2.89746 -76.63916 31982 ft 458 kts 25°
2026-04-21 06:19 2.92782 -76.62514 32364 ft 456 kts 25°
2026-04-21 06:19 2.95615 -76.61205 32734 ft 454 kts 25°
2026-04-21 06:19 2.98482 -76.59881 33079 ft 453 kts 25°
2026-04-21 06:19 3.01231 -76.58611 33377 ft 453 kts 25°
2026-04-21 06:20 3.04157 -76.57259 33712 ft 452 kts 26°
2026-04-21 06:20 3.07011 -76.55939 34038 ft 451 kts 26°
2026-04-21 06:20 3.09959 -76.54573 34316 ft 450 kts 26°
2026-04-21 06:20 3.12754 -76.53278 34566 ft 449 kts 26°
2026-04-21 06:21 3.15563 -76.51976 34813 ft 449 kts 26°
2026-04-21 06:21 3.18517 -76.50607 35049 ft 449 kts 26°
2026-04-21 06:21 3.21370 -76.49284 35025 ft 453 kts 26°
2026-04-21 06:22 3.26956 -76.46695 35042 ft 453 kts 26°
2026-04-21 06:22 3.32216 -76.44257 35048 ft 448 kts 26°
2026-04-21 06:23 3.37997 -76.41981 35049 ft 448 kts
2026-04-21 06:23 3.41108 -76.41970 35082 ft 447 kts 351°
2026-04-21 06:23 3.44105 -76.42806 35068 ft 447 kts 334°
2026-04-21 06:24 3.49444 -76.45789 35080 ft 448 kts 329°
2026-04-21 06:24 3.54829 -76.48991 35078 ft 450 kts 329°
2026-04-21 06:25 3.60209 -76.52141 35069 ft 452 kts 329°
2026-04-21 06:25 3.65674 -76.55294 35057 ft 454 kts 330°
2026-04-21 06:26 3.71147 -76.58437 35054 ft 455 kts 330°
2026-04-21 06:26 3.75732 -76.61071 35039 ft 456 kts 330°
2026-04-21 06:27 3.81050 -76.64127 35035 ft 457 kts 330°
2026-04-21 06:27 3.86543 -76.67286 35016 ft 458 kts 330°
2026-04-21 06:28 3.92063 -76.70461 35002 ft 457 kts 330°
2026-04-21 06:28 3.97564 -76.73625 34997 ft 456 kts 330°
2026-04-21 06:29 4.03057 -76.76785 34989 ft 454 kts 329°
2026-04-21 06:29 4.08530 -76.79935 34986 ft 453 kts 329°
2026-04-21 06:30 4.13988 -76.83077 34988 ft 451 kts 329°
2026-04-21 06:30 4.19386 -76.86184 34976 ft 450 kts 329°
2026-04-21 06:31 4.24808 -76.89306 34966 ft 449 kts 329°
2026-04-21 06:31 4.30208 -76.92434 34961 ft 448 kts 329°
2026-04-21 06:32 4.35610 -76.95572 34955 ft 448 kts 329°
2026-04-21 06:32 4.40997 -76.98702 34951 ft 447 kts 329°
2026-04-21 06:33 4.46379 -77.01828 34946 ft 447 kts 329°
2026-04-21 06:33 4.51713 -77.04927 34941 ft 447 kts 329°
2026-04-21 06:34 4.57131 -77.08074 34949 ft 447 kts 329°
2026-04-21 06:34 4.62510 -77.11199 34943 ft 448 kts 329°
2026-04-21 06:35 4.67911 -77.14337 34942 ft 448 kts 329°
2026-04-21 06:35 4.73318 -77.17480 34943 ft 448 kts 329°
2026-04-21 06:36 4.78485 -77.20484 34943 ft 448 kts 329°
2026-04-21 06:36 4.83801 -77.23574 34943 ft 449 kts 329°
2026-04-21 06:37 4.89287 -77.26765 34937 ft 449 kts 329°
2026-04-21 06:37 4.94694 -77.29910 34938 ft 449 kts 329°
2026-04-21 06:38 5.00098 -77.33054 34945 ft 449 kts 329°
2026-04-21 06:38 5.05514 -77.36205 34939 ft 449 kts 329°
2026-04-21 06:39 5.10926 -77.39355 34941 ft 449 kts 329°
2026-04-21 06:39 5.16320 -77.42495 34938 ft 449 kts 329°
2026-04-21 06:40 5.21626 -77.45584 34944 ft 448 kts 329°
2026-04-21 06:40 5.27033 -77.48732 34942 ft 448 kts 329°
2026-04-21 06:41 5.32438 -77.51881 34942 ft 448 kts 329°
2026-04-21 06:41 5.37740 -77.54970 34940 ft 448 kts 329°
2026-04-21 06:42 5.43116 -77.58102 34942 ft 448 kts 329°
2026-04-21 06:42 5.48487 -77.61232 34941 ft 449 kts 329°
2026-04-21 06:43 5.53884 -77.64378 34940 ft 449 kts 329°
2026-04-21 06:43 5.59288 -77.67529 34942 ft 449 kts 329°
2026-04-21 06:44 5.64692 -77.70681 34936 ft 449 kts 329°
2026-04-21 06:44 5.70094 -77.73832 34936 ft 449 kts 329°
2026-04-21 06:45 5.75501 -77.76986 34939 ft 449 kts 329°
2026-04-21 06:45 5.80916 -77.80146 34940 ft 450 kts 329°
2026-04-21 06:46 5.86293 -77.83285 34938 ft 450 kts 329°
2026-04-21 06:46 5.91721 -77.86454 34939 ft 450 kts 329°
2026-04-21 06:47 5.97134 -77.89615 34941 ft 450 kts 329°
2026-04-21 06:47 6.02538 -77.92772 34937 ft 450 kts 329°
2026-04-21 06:48 6.07945 -77.95931 34938 ft 450 kts 329°
2026-04-21 06:48 6.10381 -77.97354 34936 ft 449 kts 329°
2026-04-21 06:49 6.13952 -77.99441 34939 ft 449 kts 329°
2026-04-21 06:50 6.14824 -77.99951 34937 ft 449 kts 329°
2026-04-21 06:50 6.19105 -78.02453 34939 ft 449 kts 329°
2026-04-21 06:51 6.24477 -78.05594 34939 ft 449 kts 329°
2026-04-21 06:51 6.29879 -78.08753 34939 ft 448 kts 329°
2026-04-21 06:52 6.35273 -78.11908 34939 ft 448 kts 329°
2026-04-21 06:52 6.39713 -78.14506 34937 ft 448 kts 329°
2026-04-21 06:53 6.45289 -78.17770 34936 ft 447 kts 329°
2026-04-21 06:53 6.50665 -78.20917 34939 ft 447 kts 329°
2026-04-21 06:54 6.56010 -78.24046 34934 ft 447 kts 329°
2026-04-21 06:54 6.61377 -78.27191 34936 ft 447 kts 329°
2026-04-21 06:55 6.66747 -78.30337 34938 ft 446 kts 329°
2026-04-21 06:55 6.72011 -78.33422 34933 ft 434 kts 329°
2026-04-21 06:56 6.77226 -78.36548 34949 ft 442 kts 328°
2026-04-21 06:56 6.79852 -78.38142 34734 ft 449 kts 328°
2026-04-21 06:56 6.82543 -78.39777 34420 ft 450 kts 328°
2026-04-21 06:56 6.85213 -78.41397 34032 ft 446 kts 328°
2026-04-21 06:57 6.85829 -78.41771 33937 ft 445 kts 328°
2026-04-21 06:57 6.86712 -78.42306 33794 ft 444 kts 328°
2026-04-21 06:57 6.89351 -78.43904 33353 ft 441 kts 328°
2026-04-21 06:58 6.91967 -78.45487 32935 ft 437 kts 328°
2026-04-21 06:58 6.94574 -78.47064 32535 ft 434 kts 328°
2026-04-21 06:58 6.97152 -78.48623 32134 ft 430 kts 328°
2026-04-21 06:58 6.99684 -78.50155 31748 ft 427 kts 328°
2026-04-21 06:59 7.02233 -78.51698 31358 ft 425 kts 328°
2026-04-21 06:59 7.04759 -78.53227 30973 ft 422 kts 328°
2026-04-21 06:59 7.07275 -78.54750 30592 ft 420 kts 328°
2026-04-21 06:59 7.09747 -78.56246 30201 ft 418 kts 328°
2026-04-21 07:00 7.12233 -78.57752 29781 ft 416 kts 329°
2026-04-21 07:00 7.14708 -78.59250 29356 ft 413 kts 329°
2026-04-21 07:00 7.17163 -78.60738 28945 ft 410 kts 329°
2026-04-21 07:00 7.19598 -78.62212 28541 ft 407 kts 329°
2026-04-21 07:01 7.22019 -78.63679 28146 ft 403 kts 329°
2026-04-21 07:01 7.24434 -78.65143 27756 ft 400 kts 329°
2026-04-21 07:01 7.29174 -78.68016 26994 ft 395 kts 330°
2026-04-21 07:02 7.31522 -78.69439 26621 ft 392 kts 330°
2026-04-21 07:02 7.33853 -78.70852 26235 ft 390 kts 330°
2026-04-21 07:02 7.36176 -78.72260 25868 ft 387 kts 330°
2026-04-21 07:02 7.38468 -78.73650 25494 ft 385 kts 330°
2026-04-21 07:03 7.40771 -78.75047 25113 ft 384 kts 330°
2026-04-21 07:03 7.43032 -78.76418 24729 ft 383 kts 330°
2026-04-21 07:03 7.45321 -78.77806 24340 ft 381 kts 330°
2026-04-21 07:03 7.47513 -78.79272 23949 ft 382 kts 322°
2026-04-21 07:04 7.49456 -78.81155 23529 ft 384 kts 312°
2026-04-21 07:04 7.51005 -78.83326 22946 ft 388 kts 301°
2026-04-21 07:04 7.52346 -78.85690 22542 ft 386 kts 301°
2026-04-21 07:04 7.53653 -78.88039 22140 ft 383 kts 300°
2026-04-21 07:05 7.54951 -78.90379 21762 ft 380 kts 300°
2026-04-21 07:05 7.56231 -78.92679 21392 ft 377 kts 301°
2026-04-21 07:05 7.57516 -78.94979 21024 ft 375 kts 301°
2026-04-21 07:05 7.58778 -78.97230 20668 ft 372 kts 301°
2026-04-21 07:06 7.60053 -78.99498 20291 ft 370 kts 301°
2026-04-21 07:06 7.61316 -79.01740 19941 ft 367 kts 300°
2026-04-21 07:06 7.62583 -79.03990 19570 ft 365 kts 300°
2026-04-21 07:06 7.63834 -79.06209 19220 ft 363 kts 300°
2026-04-21 07:07 7.65085 -79.08428 18855 ft 362 kts 300°
2026-04-21 07:07 7.66323 -79.10625 18500 ft 360 kts 300°
2026-04-21 07:07 7.67559 -79.12819 18126 ft 358 kts 300°
2026-04-21 07:07 7.68784 -79.14992 17735 ft 356 kts 300°
2026-04-21 07:08 7.70001 -79.17153 17354 ft 353 kts 300°
2026-04-21 07:08 7.71202 -79.19285 16999 ft 350 kts 300°
2026-04-21 07:08 7.72417 -79.21443 16654 ft 347 kts 300°
2026-04-21 07:08 7.73589 -79.23523 16308 ft 345 kts 300°
2026-04-21 07:09 7.74779 -79.25637 15958 ft 342 kts 300°
2026-04-21 07:09 7.75946 -79.27710 15621 ft 340 kts 299°
2026-04-21 07:09 7.77156 -79.29860 15272 ft 337 kts 299°
2026-04-21 07:09 7.78298 -79.31889 14943 ft 335 kts 299°
2026-04-21 07:10 7.79447 -79.33931 14598 ft 333 kts 299°
2026-04-21 07:10 7.80590 -79.35963 14266 ft 332 kts 299°
2026-04-21 07:10 7.81734 -79.37997 13927 ft 331 kts 299°
2026-04-21 07:10 7.82865 -79.40009 13572 ft 329 kts 299°
2026-04-21 07:11 7.83994 -79.42016 13211 ft 327 kts 299°
2026-04-21 07:11 7.85114 -79.44008 12868 ft 325 kts 299°
2026-04-21 07:11 7.86224 -79.45983 12526 ft 323 kts 299°
2026-04-21 07:11 7.87315 -79.47925 12198 ft 320 kts 300°
2026-04-21 07:12 7.88411 -79.49875 11872 ft 318 kts 300°
2026-04-21 07:12 7.89500 -79.51812 11540 ft 316 kts 300°
2026-04-21 07:12 7.90583 -79.53741 11229 ft 314 kts 300°
2026-04-21 07:12 7.91655 -79.55649 10910 ft 312 kts 300°
2026-04-21 07:13 7.92723 -79.57550 10593 ft 310 kts 300°
2026-04-21 07:13 7.93787 -79.59446 10278 ft 309 kts 300°
2026-04-21 07:13 7.94838 -79.61316 10087 ft 303 kts 301°
2026-04-21 07:13 7.95851 -79.63122 9899 ft 297 kts 301°
2026-04-21 07:14 7.96853 -79.64907 9688 ft 291 kts 301°
2026-04-21 07:14 7.97858 -79.66695 9307 ft 292 kts 301°
2026-04-21 07:14 7.98859 -79.68479 8997 ft 291 kts 301°
2026-04-21 07:14 7.99855 -79.70254 8692 ft 289 kts 301°
2026-04-21 07:15 8.00843 -79.72014 8398 ft 287 kts 301°
2026-04-21 07:15 8.01642 -79.73438 8158 ft 286 kts 301°
2026-04-21 07:15 8.02605 -79.75156 7876 ft 284 kts 301°
2026-04-21 07:15 8.03577 -79.76888 7588 ft 282 kts 301°
2026-04-21 07:16 8.04539 -79.78603 7308 ft 280 kts 301°
2026-04-21 07:16 8.05491 -79.80301 7159 ft 272 kts 301°
2026-04-21 07:16 8.06302 -79.81749 7091 ft 257 kts 301°
2026-04-21 07:16 8.07171 -79.83301 6990 ft 243 kts 301°
2026-04-21 07:17 8.07980 -79.84744 6869 ft 230 kts 301°
2026-04-21 07:17 8.08744 -79.86109 6773 ft 217 kts 302°
2026-04-21 07:17 8.09475 -79.87412 6562 ft 211 kts 301°
2026-04-21 07:17 8.10181 -79.88673 6280 ft 204 kts 301°
2026-04-21 07:18 8.10873 -79.89906 5946 ft 204 kts 302°
2026-04-21 07:18 8.11572 -79.91152 5653 ft 203 kts 302°
2026-04-21 07:18 8.12265 -79.92388 5385 ft 199 kts 302°
2026-04-21 07:18 8.12923 -79.93563 5259 ft 188 kts 302°
2026-04-21 07:19 8.13564 -79.94709 4991 ft 187 kts 302°
2026-04-21 07:19 8.14189 -79.95822 4704 ft 187 kts 302°
2026-04-21 07:19 8.14819 -79.96948 4438 ft 185 kts 302°
2026-04-21 07:19 8.15479 -79.98125 4132 ft 184 kts 302°
2026-04-21 07:20 8.16100 -79.99234 3876 ft 181 kts 303°
2026-04-21 07:20 8.16713 -80.00329 3732 ft 176 kts 303°
2026-04-21 07:20 8.17312 -80.01400 3664 ft 176 kts 303°
2026-04-21 07:20 8.17915 -80.02475 3585 ft 179 kts 303°
2026-04-21 07:21 8.18554 -80.03614 3504 ft 182 kts 303°
2026-04-21 07:21 8.19176 -80.04725 3441 ft 181 kts 303°
2026-04-21 07:21 8.19784 -80.05812 3375 ft 180 kts 304°
2026-04-21 07:21 8.20393 -80.06901 3313 ft 178 kts 304°
2026-04-21 07:22 8.21189 -80.07840 3090 ft 176 kts 335°
2026-04-21 07:22 8.22252 -80.08275 2956 ft 165 kts 341°
2026-04-21 07:22 8.23310 -80.08708 2750 ft 162 kts 341°
2026-04-21 07:22 8.24343 -80.09063 2623 ft 152 kts 344°
2026-04-21 07:23 8.25349 -80.09366 2462 ft 150 kts 345°
2026-04-21 07:23 8.26348 -80.09654 2268 ft 148 kts 346°
2026-04-21 07:23 8.27341 -80.09937 2073 ft 148 kts 346°
2026-04-21 07:23 8.28329 -80.10218 1878 ft 144 kts 345°
2026-04-21 07:24 8.29268 -80.10484 1692 ft 142 kts 345°
2026-04-21 07:24 8.30231 -80.10758 1496 ft 144 kts 345°
2026-04-21 07:24 8.31177 -80.11026 1317 ft 144 kts 345°
2026-04-21 07:24 8.32152 -80.11303 1125 ft 146 kts 345°
2026-04-21 07:25 8.33127 -80.11580 926 ft 146 kts 345°
2026-04-21 07:25 8.34117 -80.11860 741 ft 149 kts 344°
2026-04-21 07:25 8.35104 -80.12144 560 ft 147 kts 342°
2026-04-21 07:25 8.36037 -80.12435 324 ft 128 kts 347°
2026-04-21 07:26 8.36910 -80.12651 90 ft 110 kts 342°
2026-04-21 07:26 8.37551 -80.12842 97 ft 77 kts 343°
2026-04-21 07:26 8.37921 -80.12940 106 ft 36 kts 345°
2026-04-21 07:26 8.38143 -80.13005 109 ft 31 kts 343°
2026-04-21 07:27 8.38342 -80.13061 114 ft 29 kts 344°
2026-04-21 07:27 8.38535 -80.13117 117 ft 25 kts 344°
2026-04-21 07:27 8.38638 -80.13130 116 ft 2 kts 19°
2026-04-21 07:27 8.38654 -80.13116 116 ft 5 kts 53°
2026-04-21 07:28 8.38671 -80.13074 118 ft 8 kts 72°
2026-04-21 07:28 8.38689 -80.13016 117 ft 10 kts 62°
2026-04-21 07:28 8.38727 -80.12952 119 ft 12 kts 76°
2026-04-21 07:28 8.38731 -80.12936 120 ft 0 kts 76°